Temp
17 17 17 17 17 17 17 17 17 17 17 18 18 19 19 20 20 20 18 17 16 16 16 16 16 16 16 17 16 16 16 16 15
18 18 17 17 17 16 16 17 17 17 18 18 18 18 19 20 20 19 18 16 16 16 16 16 15 16 16 16 17 16 16 16 15
18 18 18 17 16 16 16 17 17 17 18 18 18 18 19 20 19 18 17 16 16 16 15 15 15 15 15 15 15 15 15 15 14
18 18 18 18 17 17 18 18 18 18 18 18 18 18 19 19 19 20 17 16 15 15 15 15 15 15 15 14 14 14 14 14 14
18 18 18 18 18 18 18 18 18 18 18 18 18 18 19 20 19 18 16 16 15 15 15 15 14 14 14 14 14 14 14 14 14
19 18 19 18 18 18 18 18 18 18 18 18 18 19 20 20 19 18 17 16 16 16 16 15 15 14 13 13 13 14 14 13 13
20 18 18 18 18 17 17 18 18 18 19 18 19 19 20 20 19 18 17 16 16 16 16 16 15 14 13 13 13 13 13 13 13
19 18 18 18 18 17 17 17 18 19 20 20 20 20 20 20 19 18 18 17 15 16 16 15 15 15 13 13 13 13 13 12 12
21 20 18 18 18 18 19 20 20 19 19 20 20 20 20 20 19 19 18 17 16 15 15 15 15 15 14 13 13 12 12 12 12
21 21 21 20 20 19 20 20 20 19 19 19 19 19 19 19 19 19 18 18 17 16 15 15 15 14 14 13 13 12 12 12 12
21 21 21 20 20 20 20 20 20 20 20 20 19 19 19 19 19 19 19 18 17 17 16 15 15 14 14 13 13 13 12 12 12
20 21 20 20 20 20 20 19 19 19 20 19 20 20 20 19 19 19 19 18 18 17 17 16 15 15 14 14 13 14 13 13 13
19 20 20 20 20 19 19 19 19 19 19 20 20 19 19 19 19 19 19 18 18 18 17 17 16 15 15 14 14 13 13 12 12
19 19 20 20 19 19 19 19 19 20 19 19 19 19 19 19 19 19 19 19 18 17 18 17 16 16 15 15 15 14 13 12 12
19 20 20 19 19 19 19 19 19 19 19 19 19 19 19 19 19 19 19 19 18 17 17 17 16 16 16 15 14 15 14 13 12
19 19 20 19 19 19 19 19 18 18 18 18 18 19 19 19 19 19 19 19 18 17 17 16 16 16 16 15 15 15 14 14 13
19 19 19 19 19 19 19 19 18 18 18 18 19 19 20 20 19 19 19 18 17 17 16 16 15 15 15 14 14 14 14 13 14
18 18 19 19 19 18 18 18 17 18 18 18 18 17 18 19 19 18 18 17 16 15 15 15 14 14 13 13 13 14 14 14 13
17 16 17 18 18 17 17 17 17 17 17 17 16 17 17 17 17 17 17 16 15 14 14 13 12 13 12 12 12 13 13 13 13
20 19 16 16 17 17 17 17 17 16 17 17 16 16 16 14 15 15 16 15 13 13 13 12 11 12 11 12 12 12 12 12 11
Height
836 838 839 841 843 843 844 846 847 847 848 849 850 851 852 853 854 854 854 854 854 853 853 852 852 852 852 852 852 851 851 851 850
839 841 842 844 845 846 847 848 849 850 851 852 853 854 854 855 856 857 857 857 856 856 855 854 853 854 853 853 853 853 853 853 852
842 843 844 846 847 848 849 850 851 852 853 854 855 856 856 859 859 859 859 858 858 858 856 856 855 855 854 854 855 855 855 854 854
844 845 846 848 849 850 851 852 853 854 855 856 857 858 858 860 861 861 861 860 860 859 859 858 857 857 856 856 857 857 856 856 856
845 846 848 849 851 852 853 853 855 856 857 858 859 860 860 862 862 862 862 862 862 861 860 860 859 858 858 858 858 859 859 858 857
846 847 849 851 852 853 854 854 856 857 858 859 860 861 862 862 863 862 862 863 863 862 862 861 860 860 860 860 860 860 860 859 859
847 848 851 852 853 854 855 856 857 858 860 860 861 861 863 863 863 862 863 863 864 863 863 862 861 861 862 861 862 862 862 861 860
847 849 852 854 855 855 856 856 858 860 860 861 861 862 862 863 863 862 863 863 864 864 864 863 862 863 862 862 862 863 863 862 861
847 849 851 854 855 856 857 858 859 860 860 861 861 861 862 862 863 861 862 862 863 864 864 864 863 863 863 863 863 863 863 863 863
846 848 850 852 854 855 856 858 859 859 860 860 860 861 861 862 862 862 861 862 862 863 864 863 863 863 863 863 864 863 863 864 863
846 847 849 851 852 854 856 857 858 859 859 859 859 859 860 860 861 861 860 860 860 861 862 862 862 863 863 863 863 864 863 864 864
845 847 849 850 851 853 855 856 857 858 858 858 858 858 859 859 859 859 859 859 859 859 859 860 861 862 862 863 862 862 862 863 863
844 846 847 848 850 852 853 854 855 856 856 857 857 857 857 857 857 858 858 858 858 857 857 858 859 859 860 861 862 861 862 862 863
842 844 845 846 848 850 851 852 853 854 855 855 856 856 856 856 856 856 856 856 856 856 856 856 856 857 857 858 859 860 860 861 862
840 841 842 844 846 848 850 851 852 853 853 853 853 853 853 853 854 853 853 853 854 854 855 855 854 854 855 856 857 858 859 859 859
836 839 840 842 844 845 847 848 849 850 851 852 851 850 850 850 850 851 852 852 852 852 853 853 854 853 853 853 853 854 856 857 857
833 835 838 840 841 843 844 846 847 848 849 849 849 848 846 845 846 847 849 850 850 850 851 852 852 852 852 850 850 851 851 853 855
831 833 836 837 838 839 840 842 843 844 845 846 848 848 846 844 844 845 847 848 848 848 848 849 849 849 849 849 848 849 849 850 851
827 828 832 833 834 834 836 837 839 841 841 843 843 843 844 843 843 844 845 846 846 846 847 847 848 847 847 847 846 846 846 847 847
823 827 830 830 829 829 831 833 834 836 837 838 838 840 841 842 844 843 842 844 844 844 845 846 847 846 845 844 844 844 844 844 844
Wind_Speed
15 15 17 19 17 17 16 17 16 15 16 17 18 18 15 15 12 15 14 14 15 14 14 14 14 15 15 17 17 16 17 15 15
14 15 17 16 16 16 15 16 14 14 15 15 14 13 14 12 12 13 13 13 14 14 15 15 13 12 12 12 9 10 11 12 13
12 14 14 14 14 14 14 14 13 13 13 12 11 11 11 10 12 11 12 13 13 14 14 14 14 13 10 10 10 11 12 13 13
11 11 12 12 12 12 12 12 11 11 10 10 9 11 13 10 10 10 10 11 11 12 12 12 12 12 12 12 12 12 12 12 13
11 10 10 10 10 10 9 9 9 8 7 7 7 10 9 7 7 8 9 9 10 11 10 11 11 11 10 10 11 11 11 12 13
11 10 7 7 8 8 7 7 6 5 5 4 5 6 3 4 5 5 6 7 8 9 9 9 9 9 9 10 10 10 10 10 11
12 11 9 7 6 6 6 5 5 6 2 1 3 2 2 2 3 1 2 4 4 6 7 8 8 7 7 8 8 8 8 9 10
11 11 12 9 6 5 4 3 3 3 3 3 3 2 1 1 1 3 1 2 0 3 5 6 6 6 6 6 6 6 7 7 8
12 12 11 9 8 8 6 4 4 4 4 4 4 4 3 2 2 3 4 2 2 4 4 3 4 4 4 4 4 4 5 5 6
11 11 11 9 9 8 7 5 5 5 5 5 5 5 5 4 3 3 6 6 5 6 6 4 2 2 1 1 1 2 2 3 4
10 10 10 9 8 7 7 6 6 6 6 6 6 6 5 5 4 4 6 8 7 8 8 9 7 5 4 3 1 1 0 2 2
9 9 9 9 8 8 7 7 7 7 6 7 6 6 6 6 6 6 5 7 8 8 10 10 11 10 8 8 7 5 3 2 2
9 9 9 9 8 8 8 8 7 7 7 6 6 6 6 7 7 7 7 7 7 10 9 11 12 11 11 10 11 11 8 7 5
10 9 9 10 9 9 8 8 8 7 7 6 6 7 8 8 8 8 8 9 11 9 10 11 12 14 14 12 12 12 14 12 10
12 10 10 10 10 10 10 9 8 8 7 7 8 9 10 10 10 10 9 8 8 8 8 9 9 9 13 16 14 13 13 17 16
12 12 11 12 12 12 11 10 10 10 8 7 10 12 13 13 13 11 10 8 6 6 6 7 7 7 8 10 16 16 14 14 17
14 15 13 12 12 13 13 13 11 11 10 6 6 3 6 12 12 8 6 5 4 4 4 5 5 5 5 8 9 14 18 16 15
17 15 15 14 15 15 16 16 16 13 12 14 7 1 3 3 4 4 4 3 3 3 3 3 5 4 2 7 8 11 14 17 16
21 19 20 20 19 19 17 17 18 17 14 12 16 16 6 2 2 5 5 4 3 4 3 1 2 2 3 4 6 8 9 12 13
13 18 19 22 21 19 16 17 18 18 17 16 8 12 12 10 6 3 5 3 5 3 3 3 2 3 3 5 5 5 6 8 8
Wind_Direction
99 104 113 112 109 104 99 99 101 100 102 107 102 92 78 72 64 66 60 59 56 53 52 53 55 59 58 61 57 59 57 52 47
104 105 115 114 111 103 98 105 102 99 101 113 108 93 71 74 71 67 64 60 54 53 53 53 53 54 55 51 48 44 42 42 41
115 109 114 117 113 107 102 102 103 104 104 106 105 95 83 76 73 73 67 63 57 53 52 52 52 53 55 51 48 48 49 49 52
132 118 113 118 120 117 112 106 107 109 108 103 99 94 88 80 74 74 67 64 60 57 53 51 52 51 53 55 54 55 55 56 54
151 133 123 122 127 130 127 119 114 115 120 108 96 94 74 80 77 77 71 66 61 55 52 50 54 53 54 58 60 60 60 60 60
158 147 143 136 134 134 137 138 133 120 113 109 97 87 76 79 75 89 64 70 60 51 48 47 51 53 57 60 62 65 67 67 66
170 162 162 170 152 148 142 133 134 126 168 144 104 54 123 87 72 124 41 78 52 38 37 38 41 48 58 62 64 69 68 69 71
162 166 174 183 182 169 158 152 140 194 199 211 221 217 213 223 38 233 329 70 121 352 12 27 34 37 54 64 68 71 74 75 76
175 176 180 191 193 191 187 201 202 212 223 230 233 231 236 245 257 270 303 291 220 249 308 351 12 17 43 63 63 74 80 84 85
177 180 183 187 187 195 205 219 221 228 232 237 235 236 238 244 251 264 289 298 269 235 240 272 300 305 348 69 57 78 83 99 99
183 184 186 190 195 204 211 215 223 232 235 239 238 235 233 232 243 253 284 292 288 254 238 235 234 230 215 207 252 5 55 162 144
190 196 197 199 200 206 212 221 230 235 238 242 242 238 235 239 245 252 254 279 290 276 251 239 238 226 222 220 231 267 256 236 226
197 201 204 204 205 208 213 217 223 229 234 238 236 238 237 240 247 253 256 259 258 276 273 254 239 241 233 230 229 227 225 230 227
204 208 208 205 205 210 212 218 223 225 233 240 244 245 248 250 254 255 257 259 255 250 271 272 261 245 239 241 240 242 226 228 231
211 213 211 207 209 215 217 220 221 227 238 245 253 255 254 252 254 259 259 256 254 259 256 268 284 275 256 247 245 254 259 227 219
214 221 219 215 218 221 222 222 226 228 235 256 262 257 254 250 252 253 258 258 252 257 256 259 261 273 279 276 252 248 255 268 235
221 222 224 224 224 229 228 225 224 232 226 227 259 281 254 225 228 238 249 242 241 251 264 276 271 264 256 253 256 256 252 262 267
226 225 228 230 225 226 226 224 221 228 227 222 230 190 231 43 195 219 220 231 215 229 259 270 259 258 278 276 272 270 264 264 265
242 241 242 233 235 231 230 224 224 222 230 218 229 240 271 251 268 207 221 245 232 252 292 193 325 323 287 311 291 277 274 266 267
272 264 250 244 233 234 232 231 222 224 227 226 205 222 237 240 237 248 245 236 256 227 236 293 302 319 300 282 287 278 278 267 273